EW7929 Weather Reports


Display with metric or nautical units.
time (UTC)temp
F
wind
direction
speed
MPH
gust
MPH
rain 1hr
in
rain 24hr
in
rain mn
in
humidity
%
barometer
mb
20260503175820 51 98 0.0 1.0 0.00 0.00 0.00 46 1017.1
20260503175309 51 96 1.0 3.0 0.00 0.00 0.00 46 1017.0
20260503174804 51 98 1.0 4.0 0.00 0.00 0.00 45 1017.0
20260503174259 52 77 2.0 5.0 0.00 0.00 0.00 43 1016.9
20260503173259 52 104 3.0 6.0 0.00 0.00 0.00 42 1016.8
20260503172258 53 99 5.0 11.0 0.00 0.00 0.00 41 1016.8
20260503171758 53 120 6.0 11.0 0.00 0.00 0.00 40 1016.7
20260503170801 54 115 7.0 15.0 0.00 0.00 0.00 39 1016.7
20260503170255 55 115 7.0 15.0 0.00 0.00 0.00 38 1016.7
20260503150750 57 150 8.0 18.0 0.00 0.00 0.00 35 1016.2
20260503150249 58 160 9.0 18.0 0.00 0.00 0.00 35 1016.2
20260503140247 58 79 10.0 18.0 0.00 0.00 0.00 34 1016.6
20260503131244 58 88 9.0 18.0 0.00 0.00 0.00 36 1017.0
20260503130743 57 143 9.0 17.0 0.00 0.00 0.00 33 1017.0
20260503130243 58 148 9.0 17.0 0.00 0.00 0.00 34 1017.0
20260503110732 55 123 8.0 15.0 0.00 0.00 0.00 35 1017.8
20260503110229 55 103 6.0 15.0 0.00 0.00 0.00 37 1017.8
20260503100227 54 146 7.0 17.0 0.00 0.00 0.00 39 1018.4
20260503090224 53 95 9.0 18.0 0.00 0.00 0.00 39 1018.7
20260503081627 52 160 7.0 17.0 0.00 0.00 0.00 42 1018.6
20260503081129 52 167 7.0 17.0 0.00 0.00 0.00 43 1018.6
20260503080616 51 152 9.0 18.0 0.00 0.00 0.00 43 1018.6
20260503080111 51 169 9.0 18.0 0.00 0.00 0.00 41 1018.6
20260503072527 50 89 8.0 16.0 0.00 0.00 0.00 43 1018.6
20260503072022 50 123 8.0 14.0 0.00 0.00 0.00 44 1018.7
20260503071520 50 101 8.0 14.0 0.00 0.00 0.00 44 1018.7
20260503070504 50 129 9.0 16.0 0.00 0.00 0.00 44 1018.8
20260503054328 46 113 5.0 11.0 0.00 0.00 0.00 67 1018.7
20260503053821 46 98 4.0 7.0 0.00 0.00 0.00 70 1018.7
20260503052810 45 107 5.0 9.0 0.00 0.00 0.00 73 1018.6
20260503051758 44 87 4.0 9.0 0.00 0.00 0.00 73 1018.5
20260503051251 44 87 3.0 5.0 0.00 0.00 0.00 74 1018.5
20260503050745 44 146 3.0 6.0 0.00 0.00 0.00 74 1018.5
20260503050239 44 107 3.0 6.0 0.00 0.00 0.00 74 1018.2
20260503045733 44 118 3.0 5.0 0.00 0.00 0.00 75 1018.2
20260503045228 44 139 2.0 5.0 0.00 0.00 0.00 75 1018.1
20260503044722 44 153 3.0 7.0 0.00 0.00 0.00 76 1018.1
20260503044215 44 103 3.0 7.0 0.00 0.00 0.00 77 1018.0
20260503043711 43 104 2.0 6.0 0.00 0.00 0.00 78 1018.0
20260503043204 43 124 2.0 7.0 0.00 0.00 0.00 78 1017.9
20260503042658 43 129 3.0 7.0 0.00 0.00 0.00 78 1017.8
20260503042153 43 132 4.0 7.0 0.00 0.00 0.00 78 1017.8
20260503041648 43 122 3.0 7.0 0.00 0.00 0.00 79 1017.7
20260503041141 43 134 3.0 6.0 0.00 0.00 0.00 79 1017.6
20260503040634 44 142 3.0 7.0 0.00 0.00 0.00 78 1017.5
20260503040127 44 136 4.0 8.0 0.00 0.00 0.00 78 1017.5
20260503035623 44 150 4.0 8.0 0.00 0.00 0.00 78 1017.4
20260503035121 44 139 4.0 8.0 0.00 0.00 0.00 78 1017.4
20260503034611 44 159 3.0 8.0 0.00 0.00 0.00 78 1017.3
20260503034115 44 148 2.0 6.0 0.00 0.00 0.00 78 1017.2
20260503033611 44 130 2.0 6.0 0.00 0.00 0.00 78 1017.1
20260503033110 44 145 3.0 8.0 0.00 0.00 0.00 79 1017.1
20260503032616 44 150 3.0 8.0 0.00 0.00 0.00 78 1017.1
20260503032113 44 156 3.0 7.0 0.00 0.00 0.00 79 1017.0
20260503031106 44 121 2.0 6.0 0.00 0.00 0.00 80 1017.0
20260503030609 44 132 1.0 4.0 0.00 0.00 0.00 82 1016.9
20260503030115 43 145 0.0 4.0 0.00 0.00 0.00 84 1016.9
20260503025107 43 120 0.0 1.0 0.00 0.00 0.00 84 1017.0
20260503024607 43 120 0.0 1.0 0.00 0.00 0.00 84 1017.0
20260503024104 43 119 0.0 2.0 0.00 0.00 0.00 84 1016.9
20260503023607 43 120 1.0 3.0 0.00 0.00 0.00 84 1016.9
20260503023106 43 118 1.0 3.0 0.00 0.00 0.00 84 1017.0
20260503022606 43 104 1.0 3.0 0.00 0.00 0.00 84 1017.0
20260503021104 43 121 1.0 4.0 0.00 0.00 0.00 84 1017.0
20260503020106 43 153 2.0 5.0 0.00 0.00 0.00 83 1017.0
20260503015605 43 126 2.0 5.0 0.00 0.00 0.00 83 1017.1
20260503015107 43 166 2.0 5.0 0.00 0.00 0.00 83 1017.0
20260503014602 43 132 2.0 5.0 0.00 0.00 0.00 83 1017.1
20260503014106 43 146 0.0 4.0 0.00 0.00 0.00 84 1017.0
20260503013603 43 150 0.0 1.0 0.00 0.00 0.00 84 1017.0
20260503013102 43 149 0.0 3.0 0.00 0.00 0.00 84 1017.0
20260503012603 43 136 0.0 3.0 0.00 0.00 0.00 84 1017.0
20260503012100 43 138 1.0 2.0 0.00 0.00 0.00 84 1017.0
20260503011101 43 139 1.0 2.0 0.00 0.00 0.00 84 1017.0
20260503010616 43 141 0.0 2.0 0.00 0.00 0.00 85 1017.0
20260503005604 43 101 0.0 1.0 0.00 0.00 0.00 85 1017.0
20260503005058 43 102 0.0 1.0 0.00 0.00 0.00 85 1017.0
20260503004556 43 27 0.0 0.0 0.00 0.00 0.00 85 1017.0
20260503004057 43 27 0.0 0.0 0.00 0.00 0.00 85 1016.9
20260503003557 43 27 0.0 0.0 0.00 0.00 0.00 85 1016.9
20260503002558 43 27 0.0 1.0 0.00 0.00 0.00 85 1017.0
20260503002056 43 39 0.0 1.0 0.00 0.00 0.00 86 1017.1
20260503001557 43 39 0.0 0.0 0.00 0.00 0.00 86 1017.1
20260503001059 43 124 0.0 1.0 0.00 0.00 0.00 87 1017.2
20260503000109 42 124 0.0 2.0 0.00 0.00 0.00 86 1017.2
20260502235552 42 124 1.0 3.0 0.00 0.00 0.00 87 1017.2
20260502235053 42 123 2.0 4.0 0.00 0.00 0.00 86 1017.2
20260502234554 42 134 2.0 4.0 0.00 0.00 0.00 86 1017.3
20260502234054 41 136 2.0 3.0 0.00 0.00 0.00 85 1017.3
20260502233552 42 134 1.0 3.0 0.00 0.00 0.00 85 1017.2
20260502233053 42 158 2.0 5.0 0.00 0.00 0.00 85 1017.2
20260502232553 42 132 3.0 5.0 0.00 0.00 0.00 84 1017.3
20260502232048 42 104 1.0 5.0 0.00 0.00 0.00 83 1017.3
20260502231550 43 147 0.0 1.0 0.00 0.00 0.00 83 1017.2
20260502230053 44 94 0.0 1.0 0.00 0.00 0.00 82 1017.2
20260502225540 44 345 0.0 1.0 0.00 0.00 0.00 81 1017.2
20260502225040 44 343 0.0 1.0 0.00 0.00 0.00 81 1017.2
20260502224536 44 309 0.0 1.0 0.00 0.00 0.00 80 1017.2
20260502224041 45 311 0.0 1.0 0.00 0.00 0.00 80 1017.3
20260502223535 45 312 0.0 1.0 0.00 0.00 0.00 79 1017.3
20260502223033 45 311 1.0 3.0 0.00 0.00 0.00 78 1017.2
20260502222533 45 19 1.0 3.0 0.00 0.00 0.00 78 1017.3
20260502222032 45 13 1.0 3.0 0.00 0.00 0.00 78 1017.6
20260502221530 46 12 0.0 3.0 0.00 0.00 0.00 77 1017.6
20260502221026 46 24 0.0 3.0 0.00 0.00 0.00 76 1017.6
20260502220527 46 145 0.0 1.0 0.00 0.00 0.00 76 1017.6
20260502220039 46 145 0.0 0.0 0.00 0.00 0.00 75 1017.7
20260502215523 46 145 0.0 1.0 0.00 0.00 0.00 75 1017.7
20260502215024 46 145 0.0 1.0 0.00 0.00 0.00 75 1017.8
20260502214024 46 145 0.0 1.0 0.00 0.00 0.00 74 1017.8
20260502213521 46 145 1.0 5.0 0.00 0.00 0.00 73 1017.8
20260502211509 47 47 0.0 1.0 0.00 0.00 0.00 70 1017.7
20260502210457 47 23 0.0 1.0 0.00 0.00 0.00 71 1017.7
20260502205951 47 72 0.0 0.0 0.00 0.00 0.00 71 1017.7
20260502205445 47 72 0.0 1.0 0.00 0.00 0.00 71 1017.7
20260502204940 47 72 0.0 1.0 0.00 0.00 0.00 71 1017.7
20260502203927 47 72 0.0 1.0 0.00 0.00 0.00 70 1017.8
20260502203421 47 72 0.0 3.0 0.00 0.00 0.00 69 1017.7
20260502202915 48 153 0.0 3.0 0.00 0.00 0.00 68 1017.7
20260502202409 48 131 1.0 3.0 0.00 0.00 0.00 66 1017.6
20260502201902 48 129 2.0 4.0 0.00 0.00 0.00 65 1017.8
20260502201400 48 142 2.0 4.0 0.00 0.00 0.00 63 1017.9
20260502200345 49 129 1.0 3.0 0.00 0.00 0.00 61 1017.8
20260502195838 50 161 0.0 2.0 0.00 0.00 0.00 60 1017.7
20260502195333 50 90 1.0 4.0 0.00 0.00 0.00 59 1017.7
20260502194321 49 57 2.0 5.0 0.00 0.00 0.00 61 1017.8
20260502193814 49 27 2.0 5.0 0.00 0.00 0.00 62 1017.8
20260502192808 49 6 0.0 1.0 0.00 0.00 0.00 61 1017.7
20260502192305 49 152 0.0 1.0 0.00 0.00 0.00 61 1017.7
20260502191803 49 153 0.0 1.0 0.00 0.00 0.00 60 1017.7
20260502191259 49 152 0.0 1.0 0.00 0.00 0.00 59 1017.7
20260502190258 50 153 0.0 1.0 0.00 0.00 0.00 57 1017.6
20260502185800 51 152 0.0 1.0 0.00 0.00 0.00 57 1017.7
20260502184756 51 83 1.0 4.0 0.00 0.00 0.00 54 1017.6
20260502184253 51 136 1.0 4.0 0.00 0.00 0.00 54 1017.6
20260502183253 51 91 0.0 1.0 0.00 0.00 0.00 53 1017.6
20260502182754 51 115 0.0 1.0 0.00 0.00 0.00 54 1017.4
20260502182253 51 115 0.0 1.0 0.00 0.00 0.00 54 1017.4
20260502181753 51 114 0.0 1.0 0.00 0.00 0.00 54 1017.5
20260502181254 51 114 0.0 1.0 0.00 0.00 0.00 54 1017.4